HS5GDX-4 Weather Reports


time (UTC)temp
F
wind
direction
speed
knots
gust
knots
rain 1hr
in
rain 24hr
in
rain mn
in
humidity
%
barometer
mb
20260508005641 88 0 0.0 0.0 0.00 0.00 0.00 58 969.0
20260508004112 89 0 0.0 0.0 0.00 0.00 0.00 54 969.0
20260508002543 89 0 0.0 0.0 0.00 0.00 0.00 53 969.0
20260508001015 90 0 0.0 0.0 0.00 0.00 0.00 52 969.0
20260507235445 89 0 0.0 0.0 0.00 0.00 0.00 52 969.0
20260507233916 89 0 0.0 0.0 0.00 0.00 0.00 52 968.0
20260507232347 87 0 0.0 0.0 0.00 0.00 0.00 58 968.0
20260507230818 87 0 0.0 0.0 0.00 0.00 0.00 55 968.0
20260507225251 87 0 0.0 0.0 0.00 0.00 0.00 56 968.0
20260507223722 87 0 0.0 0.0 0.00 0.00 0.00 55 967.0
20260507222153 87 0 0.0 0.0 0.00 0.00 0.00 55 967.0
20260507220624 87 0 0.0 0.0 0.00 0.00 0.00 56 967.0
20260507215054 88 0 0.0 0.0 0.00 0.00 0.00 54 967.0
20260507213526 92 0 0.0 0.0 0.00 0.00 0.00 48 967.0
20260507211957 91 0 0.0 0.0 0.00 0.00 0.00 49 967.0
20260507210428 91 0 0.0 0.0 0.00 0.00 0.00 50 967.0
20260507204902 92 0 0.0 0.0 0.00 0.00 0.00 49 967.0
20260507204859 92 0 0.0 0.0 0.00 0.00 0.00 49 967.0
20260507203330 92 0 0.0 0.0 0.00 0.00 0.00 49 967.0
20260507201801 92 0 0.0 0.0 0.00 0.00 0.00 48 967.0
20260507200232 92 0 0.0 0.0 0.00 0.00 0.00 48 967.0
20260507194703 93 0 0.0 0.0 0.00 0.00 0.00 47 967.0
20260507193132 92 0 0.0 0.0 0.00 0.00 0.00 49 967.0
20260507191604 92 0 0.0 0.0 0.00 0.00 0.00 49 967.0
20260507190046 92 0 0.0 0.0 0.00 0.00 0.00 49 967.0
20260507190035 92 0 0.0 0.0 0.00 0.00 0.00 49 967.0
20260507184506 93 0 0.0 0.0 0.00 0.00 0.00 48 967.0
20260507182936 91 0 0.0 0.0 0.00 0.00 0.00 50 968.0
20260507181409 92 0 0.0 0.0 0.00 0.00 0.00 48 968.0
20260507175840 92 0 0.0 0.0 0.00 0.00 0.00 49 968.0
20260507174311 91 0 0.0 0.0 0.00 0.00 0.00 51 968.0
20260507172743 91 0 0.0 0.0 0.00 0.00 0.00 50 968.0
20260507171215 91 0 0.0 0.0 0.00 0.00 0.00 50 969.0
20260507165645 93 0 0.0 0.0 0.00 0.00 0.00 48 969.0
20260507164115 92 0 0.0 0.0 0.00 0.00 0.00 49 969.0
20260507162546 94 0 0.0 0.0 0.00 0.00 0.00 47 969.0
20260507161019 95 0 0.0 0.0 0.00 0.00 0.00 46 968.0
20260507155450 95 0 0.0 0.0 0.00 0.00 0.00 46 968.0
20260507153923 93 0 0.0 0.0 0.00 0.00 0.00 46 968.0
20260507152357 92 0 0.0 0.0 0.00 0.00 0.00 48 968.0
20260507150828 92 0 0.0 0.0 0.00 0.00 0.00 47 968.0
20260507145300 90 0 0.0 0.0 0.00 0.00 0.00 48 967.0
20260507143744 93 0 0.0 0.0 0.00 0.00 0.00 46 967.0
20260507143732 93 0 0.0 0.0 0.00 0.00 0.00 46 967.0
20260507142941 96 0 0.0 0.0 0.00 0.00 0.00 41 967.0
20260507142930 96 0 0.0 0.0 0.00 0.00 0.00 41 967.0
20260507141403 96 0 0.0 0.0 0.00 0.00 0.00 39 966.0
20260507135835 95 0 0.0 0.0 0.00 0.00 0.00 39 966.0
20260507134307 95 0 0.0 0.0 0.00 0.00 0.00 39 965.0
20260507132741 94 0 0.0 0.0 0.00 0.00 0.00 40 965.0
20260507131213 94 0 0.0 0.0 0.00 0.00 0.00 40 965.0
20260507125643 96 0 0.0 0.0 0.00 0.00 0.00 38 964.0
20260507124115 96 0 0.0 0.0 0.00 0.00 0.00 38 964.0
20260507122547 97 0 0.0 0.0 0.00 0.00 0.00 37 964.0
20260507121020 97 0 0.0 0.0 0.00 0.00 0.00 37 964.0
20260507115453 98 0 0.0 0.0 0.00 0.00 0.00 35 963.0
20260507113926 99 0 0.0 0.0 0.00 0.00 0.00 34 962.0
20260507112359 102 0 0.0 0.0 0.00 0.00 0.00 33 962.0
20260507110829 101 0 0.0 0.0 0.00 0.00 0.00 32 962.0
20260507105301 102 0 0.0 0.0 0.00 0.00 0.00 32 961.0
20260507103734 102 0 0.0 0.0 0.00 0.00 0.00 32 961.0
20260507102205 102 0 0.0 0.0 0.00 0.00 0.00 32 961.0
20260507100637 102 0 0.0 0.0 0.00 0.00 0.00 32 961.0
20260507095108 103 0 0.0 0.0 0.00 0.00 0.00 32 961.0
20260507093540 103 0 0.0 0.0 0.00 0.00 0.00 32 961.0
20260507092011 101 0 0.0 0.0 0.00 0.00 0.00 34 961.0
20260507090443 100 0 0.0 0.0 0.00 0.00 0.00 35 962.0
20260507084913 101 0 0.0 0.0 0.00 0.00 0.00 34 962.0
20260507083345 101 0 0.0 0.0 0.00 0.00 0.00 34 962.0
20260507081818 101 0 0.0 0.0 0.00 0.00 0.00 33 962.0
20260507080250 103 0 0.0 0.0 0.00 0.00 0.00 32 962.0
20260507074722 103 0 0.0 0.0 0.00 0.00 0.00 32 962.0
20260507074619 103 0 0.0 0.0 0.00 0.00 0.00 32 962.0
20260507073051 104 0 0.0 0.0 0.00 0.00 0.00 31 962.0
20260507071523 103 0 0.0 0.0 0.00 0.00 0.00 33 963.0
20260507065955 100 0 0.0 0.0 0.00 0.00 0.00 37 963.0
20260507064425 100 0 0.0 0.0 0.00 0.00 0.00 37 963.0
20260507062857 101 0 0.0 0.0 0.00 0.00 0.00 36 964.0
20260507061329 100 0 0.0 0.0 0.00 0.00 0.00 38 964.0
20260507055801 100 0 0.0 0.0 0.00 0.00 0.00 37 964.0
20260507054232 101 0 0.0 0.0 0.00 0.00 0.00 36 965.0
20260507052702 100 0 0.0 0.0 0.00 0.00 0.00 38 965.0
20260507051143 100 0 0.0 0.0 0.00 0.00 0.00 37 965.0
20260507051132 100 0 0.0 0.0 0.00 0.00 0.00 37 965.0
20260507045602 100 0 0.0 0.0 0.00 0.00 0.00 38 966.0
20260507044035 100 0 0.0 0.0 0.00 0.00 0.00 38 966.0
20260507042503 100 0 0.0 0.0 0.00 0.00 0.00 38 966.0
20260507040934 99 0 0.0 0.0 0.00 0.00 0.00 38 966.0
20260507035404 99 0 0.0 0.0 0.00 0.00 0.00 39 966.0
20260507033836 98 0 0.0 0.0 0.00 0.00 0.00 40 967.0
20260507032307 97 0 0.0 0.0 0.00 0.00 0.00 42 967.0
20260507030738 97 0 0.0 0.0 0.00 0.00 0.00 41 967.0
20260507025210 96 0 0.0 0.0 0.00 0.00 0.00 42 967.0
20260507023641 95 0 0.0 0.0 0.00 0.00 0.00 43 967.0
20260507022112 95 0 0.0 0.0 0.00 0.00 0.00 967.0
20260507022110 95 0 0.0 0.0 0.00 0.00 0.00 43 967.0
20260507020542 94 0 0.0 0.0 0.00 0.00 0.00 44 967.0
20260507015011 94 0 0.0 0.0 0.00 0.00 0.00 44 967.0
20260507013442 94 0 0.0 0.0 0.00 0.00 0.00 45 968.0
20260507011913 93 0 0.0 0.0 0.00 0.00 0.00 45 968.0